TimeCDT,TemperatureF,Dew PointF,Humidity,Sea Level PressureIn,VisibilityMPH,Wind Direction,Wind SpeedMPH,Gust SpeedMPH,PrecipitationIn,Events,Conditions,WindDirDegrees,DateUTC
12:15 AM,71.6,69.8,94,29.84,6.0,Calm,Calm,-,N/A,,Clear,0,2013-05-20 05:15:00
12:35 AM,69.8,69.8,100,29.84,5.0,Calm,Calm,-,N/A,,Clear,0,2013-05-20 05:35:00
12:55 AM,69.8,69.8,100,29.84,5.0,SE,3.5,-,N/A,,Clear,130,2013-05-20 05:55:00
1:15 AM,71.6,69.8,94,29.84,7.0,Calm,Calm,-,N/A,,Clear,0,2013-05-20 06:15:00
1:35 AM,69.8,69.8,100,29.83,7.0,Calm,Calm,-,N/A,,Clear,0,2013-05-20 06:35:00
1:55 AM,69.8,69.8,100,29.83,6.0,Calm,Calm,-,N/A,,Clear,0,2013-05-20 06:55:00
2:15 AM,69.8,69.8,100,29.83,7.0,Calm,Calm,-,N/A,,Clear,0,2013-05-20 07:15:00
2:35 AM,71.6,69.8,94,29.83,7.0,Calm,Calm,-,N/A,,Partly Cloudy,0,2013-05-20 07:35:00
2:55 AM,73.4,68.0,83,29.83,8.0,South,5.8,-,N/A,,Clear,190,2013-05-20 07:55:00
3:15 AM,75.2,69.8,83,29.83,8.0,South,4.6,-,N/A,,Clear,170,2013-05-20 08:15:00
3:35 AM,75.2,69.8,83,29.84,8.0,SSE,6.9,-,N/A,,Partly Cloudy,160,2013-05-20 08:35:00
3:55 AM,75.2,69.8,83,29.83,8.0,SSE,5.8,-,N/A,,Partly Cloudy,160,2013-05-20 08:55:00
4:15 AM,73.4,69.8,88,29.84,8.0,SSE,4.6,-,N/A,,Partly Cloudy,150,2013-05-20 09:15:00
4:35 AM,73.4,69.8,88,29.84,8.0,SSE,3.5,-,N/A,,Clear,160,2013-05-20 09:35:00
4:55 AM,73.4,69.8,88,29.85,8.0,South,3.5,-,N/A,,Scattered Clouds,170,2013-05-20 09:55:00
5:15 AM,73.4,69.8,88,29.86,8.0,SSE,4.6,-,N/A,,Mostly Cloudy,160,2013-05-20 10:15:00
5:35 AM,73.4,69.8,88,29.88,8.0,South,4.6,-,N/A,,Mostly Cloudy,170,2013-05-20 10:35:00
5:55 AM,73.4,69.8,88,29.88,7.0,South,4.6,-,N/A,,Mostly Cloudy,180,2013-05-20 10:55:00
6:15 AM,73.4,68.0,83,29.88,8.0,SSE,6.9,-,N/A,,Mostly Cloudy,160,2013-05-20 11:15:00
6:35 AM,73.4,68.0,83,29.88,8.0,SSE,5.8,-,N/A,,Scattered Clouds,160,2013-05-20 11:35:00
6:55 AM,73.4,68.0,83,29.89,6.0,South,5.8,-,N/A,,Haze,170,2013-05-20 11:55:00
7:15 AM,75.2,69.8,83,29.89,5.0,South,4.6,-,N/A,,Haze,180,2013-05-20 12:15:00
7:35 AM,75.2,69.8,83,29.89,6.0,South,6.9,-,N/A,,Haze,170,2013-05-20 12:35:00
7:55 AM,75.2,69.8,83,29.89,6.0,South,9.2,-,N/A,,Haze,170,2013-05-20 12:55:00
8:15 AM,75.2,69.8,83,29.89,6.0,South,10.4,-,N/A,,Haze,170,2013-05-20 13:15:00
8:35 AM,77.0,69.8,78,29.89,6.0,South,11.5,-,N/A,,Haze,180,2013-05-20 13:35:00
8:55 AM,77.0,69.8,78,29.89,6.0,South,8.1,-,N/A,,Haze,180,2013-05-20 13:55:00
9:15 AM,77.0,69.8,78,29.89,6.0,South,5.8,-,N/A,,Haze,190,2013-05-20 14:15:00
9:35 AM,77.0,69.8,78,29.88,2.5,SSE,9.2,18.4,N/A,,Haze,160,2013-05-20 14:35:00
9:55 AM,77.0,69.8,78,29.88,6.0,South,10.4,17.3,N/A,,Haze,190,2013-05-20 14:55:00
10:15 AM,78.8,71.6,78,29.88,6.0,South,6.9,-,N/A,,Haze,180,2013-05-20 15:15:00
10:35 AM,78.8,71.6,78,29.88,5.0,South,9.2,-,N/A,,Haze,170,2013-05-20 15:35:00
10:55 AM,78.8,71.6,78,29.88,6.0,South,9.2,-,N/A,,Haze,180,2013-05-20 15:55:00
11:15 AM,78.8,71.6,78,29.88,5.0,South,8.1,-,N/A,,Haze,180,2013-05-20 16:15:00
11:35 AM,78.8,71.6,78,29.87,6.0,South,9.2,18.4,N/A,,Haze,180,2013-05-20 16:35:00
11:55 AM,78.8,69.8,74,29.88,5.0,South,10.4,-,N/A,,Haze,190,2013-05-20 16:55:00
12:15 PM,78.8,71.6,78,29.87,5.0,SSW,5.8,-,N/A,,Haze,200,2013-05-20 17:15:00
12:35 PM,80.6,69.8,70,29.87,6.0,SSW,13.8,18.4,N/A,,Haze,210,2013-05-20 17:35:00
12:55 PM,80.6,71.6,74,29.86,6.0,South,10.4,21.9,N/A,,Haze,170,2013-05-20 17:55:00
1:55 PM,80.6,71.6,74,29.86,6.0,SSW,8.1,-,N/A,,Haze,200,2013-05-20 18:55:00
2:15 PM,80.6,71.6,74,29.85,6.0,South,8.1,17.3,N/A,,Haze,180,2013-05-20 19:15:00
2:35 PM,80.6,71.6,74,29.85,5.0,South,8.1,-,N/A,,Haze,170,2013-05-20 19:35:00
2:55 PM,80.6,71.6,74,29.85,5.0,SSE,5.8,-,N/A,,Haze,160,2013-05-20 19:55:00
3:15 PM,80.6,71.6,74,29.84,6.0,South,5.8,-,N/A,,Haze,170,2013-05-20 20:15:00
3:35 PM,80.6,71.6,74,29.83,6.0,SSE,5.8,-,N/A,,Haze,160,2013-05-20 20:35:00
3:55 PM,82.4,71.6,70,29.82,6.0,SSE,8.1,-,N/A,,Haze,160,2013-05-20 20:55:00
4:15 PM,82.4,71.6,70,29.81,6.0,SSE,10.4,-,N/A,,Haze,160,2013-05-20 21:15:00
4:35 PM,82.4,71.6,70,29.80,6.0,SSE,8.1,-,N/A,,Haze,150,2013-05-20 21:35:00
4:55 PM,82.4,71.6,70,29.78,7.0,SSE,6.9,-,N/A,,Scattered Clouds,150,2013-05-20 21:55:00
5:15 PM,82.4,71.6,70,29.78,7.0,SSE,5.8,-,N/A,,Mostly Cloudy,160,2013-05-20 22:15:00
5:35 PM,84.2,71.6,66,29.78,7.0,South,6.9,-,N/A,,Partly Cloudy,170,2013-05-20 22:35:00
5:55 PM,84.2,71.6,66,29.78,7.0,SSE,9.2,-,N/A,,Clear,160,2013-05-20 22:55:00
6:15 PM,82.4,71.6,70,29.77,7.0,SSE,9.2,17.3,N/A,,Clear,160,2013-05-20 23:15:00
6:35 PM,82.4,69.8,66,29.78,7.0,South,5.8,-,N/A,,Clear,170,2013-05-20 23:35:00
6:55 PM,82.4,71.6,70,29.77,7.0,SSE,5.8,-,N/A,,Clear,160,2013-05-20 23:55:00
7:15 PM,82.4,69.8,66,29.76,7.0,SSE,4.6,-,N/A,,Clear,160,2013-05-21 00:15:00
7:35 PM,80.6,69.8,70,29.76,7.0,SE,3.5,-,N/A,,Partly Cloudy,130,2013-05-21 00:35:00
7:55 PM,80.6,69.8,70,29.78,7.0,ESE,3.5,-,N/A,,Scattered Clouds,120,2013-05-21 00:55:00
8:15 PM,78.8,69.8,74,29.78,8.0,SE,3.5,-,N/A,,Partly Cloudy,140,2013-05-21 01:15:00
8:35 PM,78.8,69.8,74,29.79,8.0,Calm,Calm,-,N/A,,Clear,0,2013-05-21 01:35:00
8:55 PM,77.0,69.8,78,29.81,8.0,South,3.5,-,N/A,,Partly Cloudy,180,2013-05-21 01:55:00
9:15 PM,78.8,69.8,74,29.82,8.0,SSW,3.5,-,N/A,,Partly Cloudy,210,2013-05-21 02:15:00
9:35 PM,78.8,69.8,74,29.84,8.0,Calm,Calm,-,N/A,,Scattered Clouds,0,2013-05-21 02:35:00
9:55 PM,78.8,69.8,74,29.83,8.0,Calm,Calm,-,N/A,,Scattered Clouds,0,2013-05-21 02:55:00
10:15 PM,75.2,71.6,89,29.84,7.0,SSE,4.6,-,N/A,,Partly Cloudy,150,2013-05-21 03:15:00
10:35 PM,75.2,69.8,83,29.84,7.0,Calm,Calm,-,N/A,,Partly Cloudy,0,2013-05-21 03:35:00
10:55 PM,75.2,71.6,89,29.84,5.0,Calm,Calm,-,0.01,Thunderstorm,Mostly Cloudy,0,2013-05-21 03:55:00
11:15 PM,73.4,71.6,94,29.83,4.0,Calm,Calm,-,0.01,Thunderstorm,Mostly Cloudy,0,2013-05-21 04:15:00
11:35 PM,69.8,66.2,88,29.93,2.0,West,12.7,43.7,0.14,Rain-Thunderstorm,Rain,260,2013-05-21 04:35:00
11:55 PM,66.2,64.4,94,29.95,5.0,West,11.5,18.4,0.17,Thunderstorm,Mostly Cloudy,280,2013-05-21 04:55:00